Location: ??
(35.5386°N, 139.7291°E)
Time: 11:33:57
(UTC+00:00)

NOSS 3-1 (C) - Pass Details

Date: 13 December 2025
Orbit: 618 x 1583 km, 63.4° (Epoch: 10 January)

Event Time Altitude Azimuth Distance (km) Brightness Sun altitude
Exits shadow 19:33:19 40° 317° (NW) 1,846 4.5 -25.4°
Maximum altitude 19:36:43 75° 242° (WSW) 1,427 4.1 -24.8°
Drops below altitude 10° 19:46:00 10° 158° (SSE) 3,709 6.9 -22.9°
Sets 19:49:11 0° 157° (SSE) 4,735 7.6 -22.3°
